CW8164 Weather Reports


Display with metric or nautical units.
time (UTC)temp
F
wind
direction
speed
MPH
gust
MPH
rain 1hr
in
rain 24hr
in
rain mn
in
humidity
%
barometer
mb
20260506012403 62 103 0.0 0.0 0.00 0.00 0.00 73 1015.1
20260506011903 62 47 0.0 0.0 0.00 0.00 0.00 71 1015.1
20260506011403 62 47 0.0 0.0 0.00 0.00 0.00 72 1015.1
20260506010902 62 39 0.0 0.0 0.00 0.00 0.00 72 1015.1
20260506010403 62 355 0.0 0.0 0.00 0.00 0.00 72 1015.1
20260506005403 62 76 0.0 0.0 0.00 0.00 0.00 73 1015.1
20260506003903 62 276 0.0 2.0 0.00 0.00 0.00 72 1015.2
20260506003402 62 279 0.0 2.0 0.00 0.00 0.00 73 1015.2
20260506002403 62 149 0.0 2.0 0.00 0.00 0.00 73 1015.3
20260506001902 62 132 0.0 2.0 0.00 0.00 0.00 74 1015.2
20260506001402 62 41 0.0 2.0 0.00 0.00 0.00 74 1015.2
20260506000903 62 26 0.0 2.0 0.00 0.00 0.00 73 1015.3
20260506000403 62 30 1.0 5.0 0.00 0.00 0.00 74 1015.3
20260505235902 62 27 0.0 5.0 0.00 0.00 0.00 72 1015.4
20260505235403 62 5 0.0 5.0 0.00 0.00 0.00 73 1015.4
20260505234903 62 20 1.0 5.0 0.00 0.00 0.00 73 1015.4
20260505234403 62 272 0.0 1.0 0.00 0.00 0.00 73 1015.5
20260505233903 62 317 0.0 3.0 0.00 0.00 0.00 74 1015.5
20260505233403 62 25 1.0 3.0 0.00 0.00 0.00 73 1015.6
20260505232903 62 52 0.0 2.0 0.00 0.00 0.00 74 1015.6
20260505232403 62 115 0.0 2.0 0.00 0.00 0.00 72 1015.6
20260505231404 62 21 0.0 0.0 0.00 0.00 0.00 73 1015.6
20260505230904 62 267 0.0 0.0 0.00 0.00 0.00 72 1015.6
20260505225402 63 262 0.0 0.0 0.00 0.00 0.00 72 1015.7
20260505224903 63 238 0.0 0.0 0.00 0.00 0.00 73 1015.7
20260505224403 63 334 0.0 0.0 0.00 0.00 0.00 71 1015.7
20260505223403 63 9 0.0 0.0 0.00 0.00 0.00 72 1015.8
20260505222903 63 173 0.0 0.0 0.00 0.00 0.00 71 1015.7
20260505222403 63 276 0.0 2.0 0.00 0.00 0.00 73 1015.7
20260505221903 63 329 0.0 3.0 0.00 0.00 0.00 75 1015.8
20260505220403 63 30 1.0 5.0 0.00 0.00 0.00 74 1015.9
20260505215903 63 191 1.0 2.0 0.00 0.00 0.00 73 1015.9
20260505215403 63 7 1.0 2.0 0.00 0.00 0.00 72 1015.9
20260505214902 63 80 1.0 6.0 0.00 0.00 0.00 72 1016.0
20260505214403 63 139 1.0 6.0 0.00 0.00 0.00 74 1016.0
20260505213903 63 34 1.0 6.0 0.00 0.00 0.00 71 1016.0
20260505213403 63 272 0.0 2.0 0.00 0.00 0.00 71 1016.1
20260505212903 63 71 0.0 2.0 0.00 0.00 0.00 71 1016.1
20260505212403 63 160 1.0 2.0 0.00 0.00 0.00 72 1016.1
20260505211903 63 246 1.0 2.0 0.00 0.00 0.00 72 1016.1
20260505211403 63 251 1.0 2.0 0.00 0.00 0.00 74 1016.1
20260505210902 62 231 1.0 3.0 0.00 0.00 0.00 72 1016.2
20260505210403 62 269 1.0 3.0 0.00 0.00 0.00 72 1016.3
20260505205904 62 250 0.0 3.0 0.00 0.00 0.00 72 1016.3
20260505205403 62 209 0.0 3.0 0.00 0.00 0.00 72 1016.3
20260505204903 62 272 0.0 5.0 0.00 0.00 0.00 75 1016.4
20260505204402 62 283 1.0 5.0 0.00 0.00 0.00 75 1016.4
20260505203903 62 266 0.0 5.0 0.00 0.00 0.00 75 1016.4
20260505203403 62 231 1.0 3.0 0.00 0.00 0.00 74 1016.4
20260505202903 62 267 1.0 6.0 0.00 0.00 0.00 73 1016.4
20260505202403 62 175 2.0 6.0 0.00 0.00 0.00 73 1016.4
20260505201402 61 337 1.0 3.0 0.00 0.00 0.00 75 1016.5
20260505200903 61 183 0.0 2.0 0.00 0.00 0.00 73 1016.5
20260505200403 61 179 0.0 2.0 0.00 0.00 0.00 74 1016.4
20260505195903 61 210 1.0 2.0 0.00 0.00 0.00 75 1016.5
20260505195403 61 270 0.0 1.0 0.00 0.00 0.00 74 1016.5
20260505194902 61 229 1.0 1.0 0.00 0.00 0.00 75 1016.5
20260505194402 61 240 0.0 1.0 0.00 0.00 0.00 74 1016.5
20260505193903 60 32 0.0 1.0 0.00 0.00 0.00 77 1016.5
20260505193402 60 42 0.0 1.0 0.00 0.00 0.00 75 1016.5
20260505192902 60 51 0.0 1.0 0.00 0.00 0.00 77 1016.6
20260505192403 60 234 0.0 2.0 0.00 0.00 0.00 76 1016.5
20260505191903 60 239 1.0 3.0 0.00 0.00 0.00 77 1016.6
20260505190903 60 79 0.0 2.0 0.00 0.00 0.00 76 1016.6
20260505190403 60 86 0.0 2.0 0.00 0.00 0.00 77 1016.5
20260505185903 59 87 0.0 1.0 0.00 0.00 0.00 76 1016.5
20260505185403 59 85 0.0 3.0 0.00 0.00 0.00 76 1016.5
20260505184903 59 188 1.0 3.0 0.00 0.00 0.00 76 1016.5
20260505184404 60 229 1.0 2.0 0.00 0.00 0.00 76 1016.6
20260505183403 59 188 1.0 3.0 0.00 0.00 0.00 78 1016.6
20260505182903 59 196 0.0 2.0 0.00 0.00 0.00 77 1016.6
20260505182402 59 248 0.0 2.0 0.00 0.00 0.00 79 1016.6
20260505181903 59 94 1.0 2.0 0.00 0.00 0.00 78 1016.5
20260505181402 59 93 1.0 2.0 0.00 0.00 0.00 77 1016.6
20260505180903 58 65 1.0 2.0 0.00 0.00 0.00 79 1016.6
20260505180404 58 342 0.0 1.0 0.00 0.00 0.00 78 1016.6
20260505175903 58 81 0.0 3.0 0.00 0.00 0.00 79 1016.5
20260505175403 58 225 0.0 3.0 0.00 0.00 0.00 79 1016.5
20260505174402 58 119 0.0 3.0 0.00 0.00 0.00 81 1016.5
20260505173902 58 97 2.0 3.0 0.00 0.00 0.00 80 1016.6
20260505173402 57 126 0.0 2.0 0.00 0.00 0.00 81 1016.4
20260505172903 57 94 0.0 2.0 0.00 0.00 0.00 82 1016.4
20260505172403 57 158 1.0 2.0 0.00 0.00 0.00 81 1016.4
20260505171903 57 233 1.0 2.0 0.00 0.00 0.00 81 1016.3
20260505171403 57 3 0.0 2.0 0.00 0.00 0.00 82 1016.3
20260505170903 57 332 0.0 2.0 0.00 0.00 0.00 82 1016.3
20260505170403 57 339 1.0 2.0 0.00 0.00 0.00 82 1016.3
20260505165903 57 215 1.0 3.0 0.00 0.00 0.00 82 1016.3
20260505164403 56 248 0.0 0.0 0.00 0.00 0.00 83 1016.3
20260505163903 56 202 0.0 0.0 0.00 0.00 0.00 83 1016.3
20260505163403 56 214 0.0 0.0 0.00 0.00 0.00 83 1016.3
20260505162902 56 167 0.0 0.0 0.00 0.00 0.00 83 1016.2
20260505162403 56 170 0.0 0.0 0.00 0.00 0.00 83 1016.2
20260505161903 56 225 0.0 0.0 0.00 0.00 0.00 83 1016.1
20260505161403 56 214 0.0 0.0 0.00 0.00 0.00 84 1016.1
20260505160903 56 216 0.0 0.0 0.00 0.00 0.00 84 1016.1
20260505160403 56 203 0.0 0.0 0.00 0.00 0.00 84 1016.2
20260505152903 55 174 0.0 0.0 0.00 0.00 0.00 85 1016.1
20260505152403 55 215 0.0 0.0 0.00 0.00 0.00 86 1016.0
20260505151903 55 216 0.0 0.0 0.00 0.00 0.00 86 1016.0
20260505150903 55 226 0.0 0.0 0.00 0.00 0.00 86 1015.9
20260505150403 54 239 0.0 0.0 0.00 0.00 0.00 87 1015.8
20260505140403 54 243 0.0 0.0 0.00 0.00 0.00 87 1015.2
20260505124904 54 250 0.0 0.0 0.00 0.00 0.00 88 1014.9
20260505123403 54 250 0.0 0.0 0.00 0.00 0.00 88 1014.9
20260505122903 54 250 0.0 0.0 0.00 0.00 0.00 89 1014.8
20260505122403 54 250 0.0 0.0 0.00 0.00 0.00 88 1014.9
20260505121903 54 250 0.0 0.0 0.00 0.00 0.00 88 1014.9
20260505121403 54 250 0.0 0.0 0.00 0.00 0.00 88 1014.8
20260505120403 54 250 0.0 0.0 0.00 0.00 0.00 88 1014.8
20260505115904 54 250 0.0 0.0 0.00 0.00 0.00 88 1014.8
20260505115403 54 250 0.0 0.0 0.00 0.00 0.00 88 1014.7
20260505114903 54 250 0.0 0.0 0.00 0.00 0.00 88 1014.7
20260505114404 54 250 0.0 0.0 0.00 0.00 0.00 88 1014.7
20260505113402 54 250 0.0 0.0 0.00 0.00 0.00 88 1014.7
20260505112904 54 250 0.0 0.0 0.00 0.00 0.00 88 1014.8
20260505111903 54 250 0.0 0.0 0.00 0.00 0.00 88 1014.7
20260505111403 54 250 0.0 0.0 0.00 0.00 0.00 88 1014.7
20260505110903 54 250 0.0 0.0 0.00 0.00 0.00 88 1014.7
20260505101903 54 250 0.0 0.0 0.00 0.00 0.00 88 1014.3
20260505101404 54 248 0.0 0.0 0.00 0.00 0.00 88 1014.3
20260505100903 54 252 0.0 0.0 0.00 0.00 0.00 88 1014.3
20260505100403 54 248 0.0 0.0 0.00 0.00 0.00 88 1014.3
20260505095903 54 230 0.0 0.0 0.00 0.00 0.00 88 1014.3
20260505094903 54 230 0.0 2.0 0.00 0.00 0.00 87 1014.2
20260505094403 54 230 0.0 2.0 0.00 0.00 0.00 87 1014.2
20260505093903 54 230 0.0 0.0 0.00 0.00 0.00 87 1014.2
20260505093403 54 230 0.0 0.0 0.00 0.00 0.00 87 1014.2
20260505092903 54 230 0.0 1.0 0.00 0.00 0.00 87 1014.2
20260505092403 54 230 0.0 1.0 0.00 0.00 0.00 87 1014.0
20260505091903 54 230 0.0 0.0 0.00 0.00 0.00 87 1014.0
20260505091402 54 230 0.0 0.0 0.00 0.00 0.00 88 1014.0
20260505090903 54 230 0.0 0.0 0.00 0.00 0.00 87 1014.0
20260505090403 54 230 0.0 0.0 0.00 0.00 0.00 87 1013.9
20260505085903 54 232 0.0 2.0 0.00 0.00 0.00 87 1013.9
20260505084904 54 225 0.0 0.0 0.00 0.00 0.00 87 1013.9
20260505084403 54 225 0.0 0.0 0.00 0.00 0.00 88 1013.8
20260505083903 54 227 0.0 0.0 0.00 0.00 0.00 88 1013.9
20260505083403 53 228 0.0 0.0 0.00 0.00 0.00 88 1013.7
20260505081903 53 224 0.0 0.0 0.00 0.00 0.00 89 1013.7
20260505081403 53 236 0.0 0.0 0.00 0.00 0.00 89 1013.7
20260505080403 53 236 0.0 0.0 0.00 0.00 0.00 88 1013.6
20260505074403 53 236 0.0 0.0 0.00 0.00 0.00 87 1013.3
20260505073903 53 236 0.0 0.0 0.00 0.00 0.00 86 1013.3
20260505073402 53 236 0.0 0.0 0.00 0.00 0.00 86 1013.3
20260505072403 54 236 0.0 0.0 0.00 0.00 0.00 85 1013.1
20260505071903 54 236 0.0 0.0 0.00 0.00 0.00 85 1013.1
20260505070902 55 236 0.0 0.0 0.00 0.00 0.00 83 1013.0
20260505070403 55 236 0.0 0.0 0.00 0.00 0.00 83 1013.0
20260505065902 55 236 0.0 0.0 0.00 0.00 0.00 83 1012.9
20260505065403 55 218 0.0 1.0 0.00 0.00 0.00 83 1012.8
20260505064902 55 218 0.0 1.0 0.00 0.00 0.00 82 1012.7
20260505064403 56 219 0.0 0.0 0.00 0.00 0.00 81 1012.7
20260505063902 56 219 0.0 0.0 0.00 0.00 0.00 81 1012.6
20260505063403 56 228 0.0 0.0 0.00 0.00 0.00 80 1012.4
20260505062904 57 228 0.0 0.0 0.00 0.00 0.00 80 1012.4
20260505062403 57 319 0.0 1.0 0.00 0.00 0.00 79 1012.3
20260505061904 57 349 0.0 2.0 0.00 0.00 0.00 79 1012.2
20260505061403 57 9 0.0 2.0 0.00 0.00 0.00 78 1012.2
20260505060903 58 22 1.0 2.0 0.00 0.00 0.00 77 1012.1
20260505060403 58 32 0.0 2.0 0.00 0.00 0.00 77 1012.1
20260505055903 58 10 0.0 2.0 0.00 0.00 0.00 76 1012.1
20260505054903 59 192 0.0 3.0 0.00 0.00 0.00 75 1012.1
20260505054403 59 298 1.0 3.0 0.00 0.00 0.00 75 1012.0
20260505053904 60 249 1.0 2.0 0.00 0.00 0.00 74 1012.1
20260505053403 60 42 0.0 0.0 0.00 0.00 0.00 74 1012.1
20260505052902 61 49 0.0 2.0 0.00 0.00 0.00 72 1012.0
20260505052403 61 43 0.0 2.0 0.00 0.00 0.00 71 1012.0
20260505051402 62 101 0.0 3.0 0.00 0.00 0.00 70 1012.0
20260505050903 62 349 0.0 3.0 0.00 0.00 0.00 70 1011.9
20260505050403 63 97 0.0 3.0 0.00 0.00 0.00 70 1011.8
20260505041403 64 187 0.0 3.0 0.00 0.00 0.00 74 1011.1
20260505040403 64 207 0.0 2.0 0.00 0.00 0.00 71 1010.9
20260505035903 65 231 0.0 2.0 0.00 0.00 0.00 69 1010.9
20260505034903 65 186 0.0 3.0 0.00 0.00 0.00 66 1010.7
20260505033903 66 208 0.0 1.0 0.00 0.00 0.00 67 1010.6
20260505033403 66 262 0.0 2.0 0.00 0.00 0.00 70 1010.5
20260505032904 66 262 0.0 3.0 0.00 0.00 0.00 70 1010.4
20260505032403 66 258 2.0 3.0 0.00 0.00 0.00 74 1010.4
20260505031903 67 210 0.0 0.0 0.00 0.00 0.00 75 1010.2
20260505031403 67 210 0.0 0.0 0.00 0.00 0.00 73 1010.0
20260505030903 68 210 0.0 0.0 0.00 0.00 0.00 72 1010.0
20260505030402 68 210 0.0 0.0 0.00 0.00 0.00 71 1009.9
20260505025904 69 210 0.0 0.0 0.00 0.00 0.00 70 1009.8
20260505025403 69 210 0.0 0.0 0.00 0.00 0.00 69 1009.8
20260505024903 70 210 0.0 0.0 0.00 0.00 0.00 68 1009.8
20260505024403 70 213 0.0 2.0 0.00 0.00 0.00 67 1009.7
20260505023903 71 214 0.0 2.0 0.00 0.00 0.00 65 1009.6
20260505022403 72 219 1.0 3.0 0.00 0.00 0.00 61 1009.6
20260505020903 73 198 1.0 6.0 0.00 0.00 0.00 58 1009.7
20260505015903 74 224 0.0 3.0 0.00 0.00 0.00 56 1009.7
20260505015403 74 215 1.0 5.0 0.00 0.00 0.00 56 1009.7
20260505014403 74 198 1.0 5.0 0.00 0.00 0.00 57 1009.8
20260505013904 75 211 0.0 3.0 0.00 0.00 0.00 56 1009.7
20260505013403 75 239 0.0 5.0 0.00 0.00 0.00 54 1009.8
20260505012903 76 167 0.0 5.0 0.00 0.00 0.00 55 1009.8